Pocatello, ID

1:04 AM MDT on May 25, 2017 (GMT -0600)
Pocatello Regional

Weather History for KPIH - December, 2012

Change the Weather History Date:

Tuesday, December 11, 2012

  Actual Average Record
Temperature  
Mean Temperature 37 °F 25 °F  
Max Temperature 43 °F 33 °F 60 °F (1939)
Min Temperature 30 °F 16 °F -26 °F (1972)
Degree Days  
Heating Degree Days 28 40  
Month to date heating degree days 306 430  
Since 1 July heating degree days 1757 2158  
Cooling Degree Days 0 0  
Month to date cooling degree days 0 0  
Year to date cooling degree days 560 392  
Moisture  
Dew Point 27 °F    
Average Humidity 67    
Maximum Humidity 85    
Minimum Humidity 49    
Precipitation  
Precipitation 0.00 in 0.04 in 0.56 in (1958)
Month to date precipitation 0.59 0.46  
Year to date precipitation 9.88 11.35  
Snow  
Snow 0.00 in - - ()
Month to date snowfall 0.1  
Since 1 July snowfall 7.2  
Snow Depth 0.00 in    
Sea Level Pressure  
Sea Level Pressure 29.93 in    
Wind  
Wind Speed 16 mph (SSW)    
Max Wind Speed 30 mph    
Max Gust Speed 40 mph    
Visibility 10 miles    
Events      
T = Trace of Precipitation, MM = Missing Value Source: NWS Daily Summary

Daily Weather History Graph

Daily Weather History Graph

Search for Another Location

Airport or City:

Trip Planner

Search our weather history database for the weather conditions in past years. The results will help you decide how hot, cold, wet, or windy it might be!

Date:

Astronomy

Dec. 11, 2012 Rise Set
Actual Time 7:51 AM MST 4:56 PM MST
Civil Twilight 7:19 AM MST 5:28 PM MST
Nautical Twilight 6:43 AM MST 6:03 PM MST
Astronomical Twilight 6:09 AM MST 6:38 PM MST
Moon 5:49 AM MST (12/11) 3:39 PM MST (12/11)
Length of Visible Light 10h 08m
Length of Day
9h 04m
Waning Crescent, 4% of the Moon is Illuminated
Dec 11
Waning Crescent
Dec 13
New
Dec 19
First Quarter
Dec 28
Full
Jan 4
Last Quarter

Hourly Weather History & Observations

Time (MST) Temp. Windchill Dew Point Humidity Pressure Visibility Wind Dir Wind Speed Gust Speed Precip Events Conditions
12:08 AM 30.2 °F 19.8 °F 26.6 °F 86% 30.08 in 10.0 mi SW 13.8 mph - N/A   Mostly Cloudy
12:53 AM 30.9 °F 20.2 °F 27.0 °F 85% 30.14 in 10.0 mi SW 15.0 mph - N/A   Mostly Cloudy
1:18 AM 30.2 °F 20.2 °F 26.6 °F 86% 30.08 in 10.0 mi SW 12.7 mph - N/A   Scattered Clouds
1:53 AM 30.9 °F 19.8 °F 27.0 °F 85% 30.12 in 10.0 mi SW 16.1 mph - N/A   Clear
2:32 AM 30.2 °F 19.8 °F 26.6 °F 86% 30.06 in 10.0 mi SW 13.8 mph - N/A   Mostly Cloudy
2:39 AM 32.0 °F 21.2 °F 26.6 °F 80% 30.06 in 10.0 mi SW 16.1 mph 21.9 mph N/A   Scattered Clouds
2:53 AM 32.0 °F 23.0 °F 28.0 °F 85% 30.10 in 10.0 mi SW 11.5 mph - N/A   Mostly Cloudy
3:53 AM 30.9 °F 22.2 °F 27.0 °F 85% 30.09 in 10.0 mi SW 10.4 mph - N/A   Overcast
4:42 AM 32.0 °F 24.2 °F 28.4 °F 87% 30.03 in 10.0 mi SW 9.2 mph - N/A   Overcast
4:53 AM 33.1 °F 26.1 °F 28.0 °F 82% 30.06 in 10.0 mi SSW 8.1 mph - N/A   Overcast
5:53 AM 32.0 °F 24.2 °F 27.0 °F 82% 30.07 in 10.0 mi SSW 9.2 mph - N/A   Mostly Cloudy
6:53 AM 33.1 °F 24.9 °F 27.0 °F 78% 30.06 in 10.0 mi SW 10.4 mph - N/A   Overcast
7:53 AM 32.0 °F 25.6 °F 28.0 °F 85% 30.06 in 10.0 mi SW 6.9 mph - N/A   Overcast
8:53 AM 34.0 °F 28.0 °F 28.0 °F 79% 30.04 in 10.0 mi SSW 6.9 mph - N/A   Mostly Cloudy
9:53 AM 36.0 °F 28.0 °F 28.0 °F 73% 30.03 in 10.0 mi SSW 11.5 mph - N/A   Mostly Cloudy
10:53 AM 37.0 °F 29.3 °F 28.0 °F 70% 30.01 in 10.0 mi South 11.5 mph - N/A   Mostly Cloudy
11:53 AM 39.9 °F 31.8 °F 28.0 °F 63% 29.96 in 10.0 mi South 15.0 mph - N/A   Scattered Clouds
12:53 PM 42.1 °F 34.2 °F 28.0 °F 58% 29.91 in 10.0 mi South 16.1 mph - N/A   Scattered Clouds
1:53 PM 41.0 °F 33.1 °F 28.0 °F 60% 29.88 in 10.0 mi South 15.0 mph - N/A   Scattered Clouds
2:53 PM 41.0 °F 33.1 °F 28.0 °F 60% 29.83 in 10.0 mi South 15.0 mph 24.2 mph N/A   Partly Cloudy
3:53 PM 39.9 °F 30.2 °F 27.0 °F 60% 29.81 in 10.0 mi South 20.7 mph - N/A   Partly Cloudy
4:53 PM 37.9 °F 27.1 °F 26.1 °F 62% 29.80 in 10.0 mi South 23.0 mph 31.1 mph N/A   Partly Cloudy
5:53 PM 39.0 °F 28.8 °F 26.1 °F 60% 29.77 in 10.0 mi South 21.9 mph 32.2 mph N/A   Clear
6:53 PM 39.0 °F 28.8 °F 26.1 °F 60% 29.76 in 10.0 mi South 21.9 mph 32.2 mph N/A   Mostly Cloudy
7:53 PM 39.0 °F 28.3 °F 26.1 °F 60% 29.73 in 10.0 mi South 24.2 mph 34.5 mph N/A   Partly Cloudy
8:53 PM 41.0 °F 30.2 °F 25.0 °F 53% 29.69 in 10.0 mi South 27.6 mph 39.1 mph N/A   Partly Cloudy
9:53 PM 42.1 °F 32.3 °F 24.1 °F 49% 29.66 in 10.0 mi South 24.2 mph 34.5 mph N/A   Scattered Clouds
10:53 PM 42.1 °F 32.3 °F 24.1 °F 49% 29.63 in 10.0 mi South 24.2 mph 31.1 mph N/A   Mostly Cloudy
11:53 PM 42.1 °F 32.6 °F 24.1 °F 49% 29.62 in 10.0 mi South 23.0 mph 32.2 mph N/A   Clear